Flag for United Kingdom Weather past 2 weeks in Truro, England, United Kingdom

Now
50 °F

Fog.


Feels Like: 44 °F
Forecast: 45 / 50 °F
Wind: 16 mph from Southwest

Location: Culdrose

Current Time: Mar 30, 2015 at 7:15:06 PM

Latest Report: Mar 30, 2015 at 5:50 PM


Visibility: 0 mi

Pressure: 29.86 "Hg

Humidity: 100%

Dew point: 50 °F

Location of TruroLocation

Historic Weather in Truro — Graph

°F

Truro temperature yesterday

Maximum temperature yesterday: 52 °F (at 6:50 AM)
Minimum temperature yesterday: 48 °F (at 7:50 PM)
Average temperature yesterday: 50 °F

Past Weeks' High & Low Weather Summary

 TemperatureHumidityPressure
High54 °F (Mar 18, 12:50 PM)100% (Mar 26, 1:50 AM)30.51 "Hg (Mar 26, 1:50 AM)
Low36 °F (Mar 18, 6:50 AM)50% (Mar 18, 11:50 AM)29.56 "Hg (Mar 26, 1:50 AM)
Average45 °F83%30.11 "Hg
* Reported Mar 15 4:50 PM — Mar 30 5:50 PM, Truro, Weather by CustomWeather, © 2015

Note: Actual official high and low records may vary slightly from our data, if they occured in-between our weather recording intervals... More about our weather records

Advertising

Truro weather history for previous 24 hours

 ConditionsComfort  
Time TempWeatherWind HumidityBarometerVisibility
5:50 PM
Mon, Mar 30
50 °FFog.16 mph100%29.86 "Hg0 mi
4:50 PM50 °FFog.20 mph100%29.89 "Hg0 mi
3:50 PM50 °FFog.16 mph100%29.92 "Hg0 mi
2:50 PM50 °FDrizzle. Broken clouds.16 mph94%29.92 "Hg1 mi
1:50 PM50 °FFog.23 mph94%29.95 "Hg2 mi
12:50 PM48 °FDrizzle. Mostly cloudy.9 mph100%29.98 "Hg2 mi
11:50 AM50 °FOvercast.8 mph88%29.98 "HgN/A
10:50 AM50 °FPartly sunny.8 mph82%29.98 "HgN/A
9:50 AM50 °FBroken clouds.10 mph82%29.95 "HgN/A
8:50 AM48 °FScattered clouds.10 mph87%29.95 "HgN/A
7:50 AM46 °FPassing clouds.8 mph93%29.95 "HgN/A
6:50 AM46 °FPassing clouds.8 mph87%29.92 "HgN/A
5:50 AM46 °FHaze.13 mph82%29.89 "HgN/A
4:50 AM45 °FHaze.14 mph93%29.86 "HgN/A
3:50 AM45 °FHaze.14 mph93%29.83 "HgN/A
2:50 AM46 °FPassing clouds.16 mph87%29.83 "HgN/A
1:50 AM46 °FOvercast.14 mph93%29.80 "HgN/A
12:50 AM46 °FPartly cloudy.16 mph93%29.77 "Hg2 mi
11:50 PM
Sun, Mar 29
48 °FDrizzle. Mostly cloudy.12 mph100%29.74 "Hg2 mi
10:50 PM48 °FPartly cloudy.8 mph94%29.71 "Hg2 mi
9:50 PM48 °FDrizzle. Mostly cloudy.10 mph100%29.71 "Hg1 mi
8:50 PM48 °FDrizzle. Overcast.12 mph100%29.71 "Hg1 mi
7:50 PM48 °FDrizzle. Cloudy.14 mph100%29.71 "Hg1 mi
Weather by CustomWeather, © 2015

See weather overviewHow to use our weather pages